Year,Month,Day,Hour,Minute,Value (Times are PST for insolation in W/m^2)
2007,07,03,00,00,0.00
2007,07,03,00,01,0.00
2007,07,03,00,02,0.00
2007,07,03,00,03,0.00
2007,07,03,00,04,0.00
2007,07,03,00,05,0.00
2007,07,03,00,06,0.00
2007,07,03,00,07,0.00
2007,07,03,00,08,0.00
2007,07,03,00,09,0.00
2007,07,03,00,10,0.00
2007,07,03,00,11,0.00
2007,07,03,00,12,0.00
2007,07,03,00,13,0.00
2007,07,03,00,14,0.00
2007,07,03,00,15,0.00
2007,07,03,00,16,0.00
2007,07,03,00,17,0.00
2007,07,03,00,18,0.00
2007,07,03,00,19,0.00
2007,07,03,00,20,0.00
2007,07,03,00,21,0.00
2007,07,03,00,22,0.00
2007,07,03,00,23,0.00
2007,07,03,00,24,0.00
2007,07,03,00,25,0.00
2007,07,03,00,26,0.00
2007,07,03,00,27,0.00
2007,07,03,00,28,0.00
2007,07,03,00,29,0.00
2007,07,03,00,30,0.00
2007,07,03,00,31,0.00
2007,07,03,00,32,0.00
2007,07,03,00,33,0.00
2007,07,03,00,34,0.00
2007,07,03,00,35,0.00
2007,07,03,00,36,0.00
2007,07,03,00,37,0.00
2007,07,03,00,38,0.00
2007,07,03,00,39,0.00
2007,07,03,00,40,0.00
2007,07,03,00,41,0.00
2007,07,03,00,42,0.00
2007,07,03,00,43,0.00
2007,07,03,00,44,0.00
2007,07,03,00,45,0.00
2007,07,03,00,46,0.00
2007,07,03,00,47,0.00
2007,07,03,00,48,0.00
2007,07,03,00,49,0.00
2007,07,03,00,50,0.00
2007,07,03,00,51,0.00
2007,07,03,00,52,0.00
2007,07,03,00,53,0.00
2007,07,03,00,54,0.00
2007,07,03,00,55,0.00
2007,07,03,00,56,0.00
2007,07,03,00,57,0.00
2007,07,03,00,58,0.00
2007,07,03,00,59,0.00
2007,07,03,01,00,0.00
2007,07,03,01,01,0.00
2007,07,03,01,02,0.00
2007,07,03,01,03,0.00
2007,07,03,01,04,0.00
2007,07,03,01,05,0.00
2007,07,03,01,06,0.00
2007,07,03,01,07,0.00
2007,07,03,01,08,0.00
2007,07,03,01,09,0.00
2007,07,03,01,10,0.00
2007,07,03,01,11,0.00
2007,07,03,01,12,0.00
2007,07,03,01,13,0.00
2007,07,03,01,14,0.00
2007,07,03,01,15,0.00
2007,07,03,01,16,0.00
2007,07,03,01,17,0.00
2007,07,03,01,18,0.00
2007,07,03,01,19,0.00
2007,07,03,01,20,0.00
2007,07,03,01,21,0.00
2007,07,03,01,22,0.00
2007,07,03,01,23,0.00
2007,07,03,01,24,0.00
2007,07,03,01,25,0.00
2007,07,03,01,26,0.00
2007,07,03,01,27,0.00
2007,07,03,01,28,0.00
2007,07,03,01,29,0.00
2007,07,03,01,30,0.00
2007,07,03,01,31,0.00
2007,07,03,01,32,0.00
2007,07,03,01,33,0.00
2007,07,03,01,34,0.00
2007,07,03,01,35,0.00
2007,07,03,01,36,0.00
2007,07,03,01,37,0.00
2007,07,03,01,38,0.00
2007,07,03,01,39,0.00
2007,07,03,01,40,0.00
2007,07,03,01,41,0.00
2007,07,03,01,42,0.00
2007,07,03,01,43,0.00
2007,07,03,01,44,0.00
2007,07,03,01,45,0.00
2007,07,03,01,46,0.00
2007,07,03,01,47,0.00
2007,07,03,01,48,0.00
2007,07,03,01,49,0.00
2007,07,03,01,50,0.00
2007,07,03,01,51,0.00
2007,07,03,01,52,0.00
2007,07,03,01,53,0.00
2007,07,03,01,54,0.00
2007,07,03,01,55,0.00
2007,07,03,01,56,0.00
2007,07,03,01,57,0.00
2007,07,03,01,58,0.00
2007,07,03,01,59,0.00
2007,07,03,02,00,0.00
2007,07,03,02,01,0.00
2007,07,03,02,02,0.00
2007,07,03,02,03,0.00
2007,07,03,02,04,0.00
2007,07,03,02,05,0.00
2007,07,03,02,06,0.00
2007,07,03,02,07,0.00
2007,07,03,02,08,0.00
2007,07,03,02,09,0.00
2007,07,03,02,10,0.00
2007,07,03,02,11,0.00
2007,07,03,02,12,0.00
2007,07,03,02,13,0.00
2007,07,03,02,14,0.00
2007,07,03,02,15,0.00
2007,07,03,02,16,0.00
2007,07,03,02,17,0.00
2007,07,03,02,18,0.00
2007,07,03,02,19,0.00
2007,07,03,02,20,0.00
2007,07,03,02,21,0.00
2007,07,03,02,22,0.00
2007,07,03,02,23,0.00
2007,07,03,02,24,0.00
2007,07,03,02,25,0.00
2007,07,03,02,26,0.00
2007,07,03,02,27,0.00
2007,07,03,02,28,0.00
2007,07,03,02,29,0.00
2007,07,03,02,30,0.00
2007,07,03,02,31,0.00
2007,07,03,02,32,0.00
2007,07,03,02,33,0.00
2007,07,03,02,34,0.00
2007,07,03,02,35,0.00
2007,07,03,02,36,0.00
2007,07,03,02,37,0.00
2007,07,03,02,38,0.00
2007,07,03,02,39,0.00
2007,07,03,02,40,0.00
2007,07,03,02,41,0.00
2007,07,03,02,42,0.00
2007,07,03,02,43,0.00
2007,07,03,02,44,0.00
2007,07,03,02,45,0.00
2007,07,03,02,46,0.00
2007,07,03,02,47,0.00
2007,07,03,02,48,0.00
2007,07,03,02,49,0.00
2007,07,03,02,50,0.00
2007,07,03,02,51,0.00
2007,07,03,02,52,0.00
2007,07,03,02,53,0.00
2007,07,03,02,54,0.00
2007,07,03,02,55,0.00
2007,07,03,02,56,0.00
2007,07,03,02,57,0.00
2007,07,03,02,58,0.00
2007,07,03,02,59,0.00
2007,07,03,03,00,0.00
2007,07,03,03,01,0.00
2007,07,03,03,02,0.00
2007,07,03,03,03,0.00
2007,07,03,03,04,0.00
2007,07,03,03,05,0.00
2007,07,03,03,06,0.00
2007,07,03,03,07,0.00
2007,07,03,03,08,0.00
2007,07,03,03,09,0.00
2007,07,03,03,10,0.00
2007,07,03,03,11,0.00
2007,07,03,03,12,0.00
2007,07,03,03,13,0.00
2007,07,03,03,14,0.00
2007,07,03,03,15,0.00
2007,07,03,03,16,0.00
2007,07,03,03,17,0.00
2007,07,03,03,18,0.00
2007,07,03,03,19,0.00
2007,07,03,03,20,0.00
2007,07,03,03,21,0.00
2007,07,03,03,22,0.00
2007,07,03,03,23,0.00
2007,07,03,03,24,0.00
2007,07,03,03,25,0.00
2007,07,03,03,26,0.00
2007,07,03,03,27,0.00
2007,07,03,03,28,0.00
2007,07,03,03,29,0.00
2007,07,03,03,30,0.00
2007,07,03,03,31,0.00
2007,07,03,03,32,0.00
2007,07,03,03,33,0.00
2007,07,03,03,34,0.00
2007,07,03,03,35,0.00
2007,07,03,03,36,0.00
2007,07,03,03,37,0.00
2007,07,03,03,38,0.00
2007,07,03,03,39,0.00
2007,07,03,03,40,0.00
2007,07,03,03,41,0.00
2007,07,03,03,42,0.00
2007,07,03,03,43,0.00
2007,07,03,03,44,0.00
2007,07,03,03,45,0.00
2007,07,03,03,46,0.00
2007,07,03,03,47,0.00
2007,07,03,03,48,0.00
2007,07,03,03,49,0.00
2007,07,03,03,50,0.00
2007,07,03,03,51,0.00
2007,07,03,03,52,0.00
2007,07,03,03,53,0.00
2007,07,03,03,54,0.00
2007,07,03,03,55,0.00
2007,07,03,03,56,0.00
2007,07,03,03,57,0.00
2007,07,03,03,58,0.00
2007,07,03,03,59,0.00
2007,07,03,04,00,0.00
2007,07,03,04,01,0.00
2007,07,03,04,02,0.00
2007,07,03,04,03,0.00
2007,07,03,04,04,0.00
2007,07,03,04,05,0.00
2007,07,03,04,06,0.00
2007,07,03,04,07,0.00
2007,07,03,04,08,0.00
2007,07,03,04,09,0.00
2007,07,03,04,10,0.00
2007,07,03,04,11,0.00
2007,07,03,04,12,0.00
2007,07,03,04,13,0.00
2007,07,03,04,14,0.00
2007,07,03,04,15,0.00
2007,07,03,04,16,0.00
2007,07,03,04,17,0.00
2007,07,03,04,18,0.00
2007,07,03,04,19,0.00
2007,07,03,04,20,0.00
2007,07,03,04,21,0.00
2007,07,03,04,22,0.00
2007,07,03,04,23,0.00
2007,07,03,04,24,0.00
2007,07,03,04,25,0.00
2007,07,03,04,26,0.00
2007,07,03,04,27,0.00
2007,07,03,04,28,0.00
2007,07,03,04,29,0.00
2007,07,03,04,30,0.00
2007,07,03,04,31,0.00
2007,07,03,04,32,0.00
2007,07,03,04,33,0.00
2007,07,03,04,34,0.00
2007,07,03,04,35,0.00
2007,07,03,04,36,0.00
2007,07,03,04,37,0.00
2007,07,03,04,38,0.00
2007,07,03,04,39,0.00
2007,07,03,04,40,0.00
2007,07,03,04,41,0.00
2007,07,03,04,42,0.00
2007,07,03,04,43,0.00
2007,07,03,04,44,0.00
2007,07,03,04,45,0.00
2007,07,03,04,46,0.00
2007,07,03,04,47,0.00
2007,07,03,04,48,0.00
2007,07,03,04,49,0.00
2007,07,03,04,50,0.00
2007,07,03,04,51,0.00
2007,07,03,04,52,0.00
2007,07,03,04,53,0.00
2007,07,03,04,54,0.00
2007,07,03,04,55,0.00
2007,07,03,04,56,0.00
2007,07,03,04,57,0.00
2007,07,03,04,58,0.00
2007,07,03,04,59,0.00
2007,07,03,05,00,0.00
2007,07,03,05,01,0.00
2007,07,03,05,02,0.00
2007,07,03,05,03,0.00
2007,07,03,05,04,0.00
2007,07,03,05,05,0.00
2007,07,03,05,06,0.00
2007,07,03,05,07,0.00
2007,07,03,05,08,0.00
2007,07,03,05,09,0.00
2007,07,03,05,10,0.00
2007,07,03,05,11,0.00
2007,07,03,05,12,0.00
2007,07,03,05,13,0.00
2007,07,03,05,14,0.00
2007,07,03,05,15,0.00
2007,07,03,05,16,0.00
2007,07,03,05,17,0.00
2007,07,03,05,18,0.00
2007,07,03,05,19,0.00
2007,07,03,05,20,0.00
2007,07,03,05,21,0.00
2007,07,03,05,22,0.00
2007,07,03,05,23,0.00
2007,07,03,05,24,0.00
2007,07,03,05,25,0.00
2007,07,03,05,26,0.00
2007,07,03,05,27,0.00
2007,07,03,05,28,0.00
2007,07,03,05,29,0.00
2007,07,03,05,30,0.00
2007,07,03,05,31,0.00
2007,07,03,05,32,0.00
2007,07,03,05,33,0.00
2007,07,03,05,34,0.00
2007,07,03,05,35,4.00
2007,07,03,05,36,5.00
2007,07,03,05,37,5.00
2007,07,03,05,38,5.00
2007,07,03,05,39,5.00
2007,07,03,05,40,5.00
2007,07,03,05,41,4.40
2007,07,03,05,42,0.00
2007,07,03,05,43,1.20
2007,07,03,05,44,5.00
2007,07,03,05,45,5.00
2007,07,03,05,46,5.00
2007,07,03,05,47,5.00
2007,07,03,05,48,5.00
2007,07,03,05,49,5.90
2007,07,03,05,50,7.00
2007,07,03,05,51,7.00
2007,07,03,05,52,5.60
2007,07,03,05,53,5.00
2007,07,03,05,54,5.00
2007,07,03,05,55,6.60
2007,07,03,05,56,7.00
2007,07,03,05,57,7.00
2007,07,03,05,58,5.00
2007,07,03,05,59,5.00
2007,07,03,06,00,5.00
2007,07,03,06,01,5.00
2007,07,03,06,02,5.00
2007,07,03,06,03,5.00
2007,07,03,06,04,5.00
2007,07,03,06,05,5.40
2007,07,03,06,06,7.00
2007,07,03,06,07,7.00
2007,07,03,06,08,7.00
2007,07,03,06,09,7.00
2007,07,03,06,10,7.00
2007,07,03,06,11,7.00
2007,07,03,06,12,7.00
2007,07,03,06,13,7.00
2007,07,03,06,14,7.00
2007,07,03,06,15,7.00
2007,07,03,06,16,7.00
2007,07,03,06,17,7.00
2007,07,03,06,18,8.60
2007,07,03,06,19,9.00
2007,07,03,06,20,10.90
2007,07,03,06,21,11.00
2007,07,03,06,22,12.00
2007,07,03,06,23,12.00
2007,07,03,06,24,12.00
2007,07,03,06,25,14.00
2007,07,03,06,26,16.00
2007,07,03,06,27,16.00
2007,07,03,06,28,16.00
2007,07,03,06,29,15.50
2007,07,03,06,30,14.50
2007,07,03,06,31,16.00
2007,07,03,06,32,16.00
2007,07,03,06,33,16.00
2007,07,03,06,34,16.00
2007,07,03,06,35,16.00
2007,07,03,06,36,14.80
2007,07,03,06,37,12.80
2007,07,03,06,38,12.00
2007,07,03,06,39,11.20
2007,07,03,06,40,11.00
2007,07,03,06,41,11.00
2007,07,03,06,42,11.90
2007,07,03,06,43,12.00
2007,07,03,06,44,14.00
2007,07,03,06,45,16.00
2007,07,03,06,46,18.00
2007,07,03,06,47,21.00
2007,07,03,06,48,23.00
2007,07,03,06,49,25.10
2007,07,03,06,50,26.20
2007,07,03,06,51,28.40
2007,07,03,06,52,30.00
2007,07,03,06,53,30.00
2007,07,03,06,54,28.80
2007,07,03,06,55,26.00
2007,07,03,06,56,26.00
2007,07,03,06,57,26.80
2007,07,03,06,58,29.10
2007,07,03,06,59,31.10
2007,07,03,07,00,32.00
2007,07,03,07,01,32.70
2007,07,03,07,02,34.50
2007,07,03,07,03,35.00
2007,07,03,07,04,36.30
2007,07,03,07,05,37.00
2007,07,03,07,06,37.00
2007,07,03,07,07,38.60
2007,07,03,07,08,37.30
2007,07,03,07,09,37.00
2007,07,03,07,10,37.00
2007,07,03,07,11,35.10
2007,07,03,07,12,33.00
2007,07,03,07,13,32.90
2007,07,03,07,14,31.30
2007,07,03,07,15,27.50
2007,07,03,07,16,26.00
2007,07,03,07,17,25.60
2007,07,03,07,18,25.40
2007,07,03,07,19,26.00
2007,07,03,07,20,28.00
2007,07,03,07,21,31.70
2007,07,03,07,22,36.90
2007,07,03,07,23,42.50
2007,07,03,07,24,46.10
2007,07,03,07,25,48.50
2007,07,03,07,26,51.50
2007,07,03,07,27,53.00
2007,07,03,07,28,53.00
2007,07,03,07,29,53.00
2007,07,03,07,30,51.00
2007,07,03,07,31,47.00
2007,07,03,07,32,46.00
2007,07,03,07,33,44.00
2007,07,03,07,34,47.00
2007,07,03,07,35,51.00
2007,07,03,07,36,51.00
2007,07,03,07,37,51.00
2007,07,03,07,38,50.20
2007,07,03,07,39,46.70
2007,07,03,07,40,46.00
2007,07,03,07,41,46.30
2007,07,03,07,42,49.10
2007,07,03,07,43,55.50
2007,07,03,07,44,59.10
2007,07,03,07,45,60.00
2007,07,03,07,46,60.00
2007,07,03,07,47,60.00
2007,07,03,07,48,58.50
2007,07,03,07,49,59.30
2007,07,03,07,50,61.80
2007,07,03,07,51,62.00
2007,07,03,07,52,62.80
2007,07,03,07,53,62.00
2007,07,03,07,54,60.30
2007,07,03,07,55,56.00
2007,07,03,07,56,51.00
2007,07,03,07,57,47.00
2007,07,03,07,58,41.90
2007,07,03,07,59,40.20
2007,07,03,08,00,42.00
2007,07,03,08,01,42.50
2007,07,03,08,02,43.40
2007,07,03,08,03,42.00
2007,07,03,08,04,42.80
2007,07,03,08,05,45.30
2007,07,03,08,06,48.00
2007,07,03,08,07,51.20
2007,07,03,08,08,51.80
2007,07,03,08,09,51.00
2007,07,03,08,10,49.60
2007,07,03,08,11,49.00
2007,07,03,08,12,47.40
2007,07,03,08,13,44.60
2007,07,03,08,14,42.60
2007,07,03,08,15,43.50
2007,07,03,08,16,47.00
2007,07,03,08,17,53.00
2007,07,03,08,18,58.00
2007,07,03,08,19,62.00
2007,07,03,08,20,63.00
2007,07,03,08,21,65.00
2007,07,03,08,22,64.80
2007,07,03,08,23,62.80
2007,07,03,08,24,62.00
2007,07,03,08,25,62.90
2007,07,03,08,26,66.20
2007,07,03,08,27,70.50
2007,07,03,08,28,77.90
2007,07,03,08,29,85.80
2007,07,03,08,30,90.60
2007,07,03,08,31,90.40
2007,07,03,08,32,88.70
2007,07,03,08,33,88.00
2007,07,03,08,34,90.20
2007,07,03,08,35,93.60
2007,07,03,08,36,96.80
2007,07,03,08,37,97.90
2007,07,03,08,38,101.80
2007,07,03,08,39,109.00
2007,07,03,08,40,114.00
2007,07,03,08,41,114.00
2007,07,03,08,42,107.30
2007,07,03,08,43,102.00
2007,07,03,08,44,97.90
2007,07,03,08,45,96.60
2007,07,03,08,46,92.40
2007,07,03,08,47,89.50
2007,07,03,08,48,87.40
2007,07,03,08,49,87.60
2007,07,03,08,50,94.40
2007,07,03,08,51,103.90
2007,07,03,08,52,112.50
2007,07,03,08,53,118.20
2007,07,03,08,54,120.60
2007,07,03,08,55,120.40
2007,07,03,08,56,122.10
2007,07,03,08,57,128.20
2007,07,03,08,58,134.10
2007,07,03,08,59,138.20
2007,07,03,09,00,141.60
2007,07,03,09,01,150.40
2007,07,03,09,02,159.80
2007,07,03,09,03,169.60
2007,07,03,09,04,169.00
2007,07,03,09,05,163.00
2007,07,03,09,06,167.00
2007,07,03,09,07,174.20
2007,07,03,09,08,177.80
2007,07,03,09,09,175.20
2007,07,03,09,10,171.00
2007,07,03,09,11,172.60
2007,07,03,09,12,174.80
2007,07,03,09,13,172.00
2007,07,03,09,14,174.60
2007,07,03,09,15,181.50
2007,07,03,09,16,188.90
2007,07,03,09,17,192.60
2007,07,03,09,18,195.50
2007,07,03,09,19,197.00
2007,07,03,09,20,194.00
2007,07,03,09,21,191.20
2007,07,03,09,22,235.50
2007,07,03,09,23,199.40
2007,07,03,09,24,185.40
2007,07,03,09,25,181.00
2007,07,03,09,26,185.00
2007,07,03,09,27,190.90
2007,07,03,09,28,204.00
2007,07,03,09,29,216.00
2007,07,03,09,30,225.10
2007,07,03,09,31,227.40
2007,07,03,09,32,231.30
2007,07,03,09,33,237.40
2007,07,03,09,34,238.40
2007,07,03,09,35,238.50
2007,07,03,09,36,241.00
2007,07,03,09,37,237.90
2007,07,03,09,38,226.00
2007,07,03,09,39,212.50
2007,07,03,09,40,207.00
2007,07,03,09,41,211.50
2007,07,03,09,42,218.80
2007,07,03,09,43,223.40
2007,07,03,09,44,229.30
2007,07,03,09,45,234.70
2007,07,03,09,46,229.40
2007,07,03,09,47,218.70
2007,07,03,09,48,214.80
2007,07,03,09,49,221.00
2007,07,03,09,50,229.00
2007,07,03,09,51,225.00
2007,07,03,09,52,220.00
2007,07,03,09,53,219.80
2007,07,03,09,54,217.80
2007,07,03,09,55,214.20
2007,07,03,09,56,203.20
2007,07,03,09,57,194.20
2007,07,03,09,58,190.60
2007,07,03,09,59,188.80
2007,07,03,10,00,193.10
2007,07,03,10,01,199.20
2007,07,03,10,02,206.10
2007,07,03,10,03,214.00
2007,07,03,10,04,217.20
2007,07,03,10,05,224.10
2007,07,03,10,06,238.00
2007,07,03,10,07,243.40
2007,07,03,10,08,250.10
2007,07,03,10,09,263.20
2007,07,03,10,10,277.20
2007,07,03,10,11,276.00
2007,07,03,10,12,279.00
2007,07,03,10,13,267.00
2007,07,03,10,14,255.00
2007,07,03,10,15,250.00
2007,07,03,10,16,253.40
2007,07,03,10,17,301.10
2007,07,03,10,18,283.60
2007,07,03,10,19,294.80
2007,07,03,10,20,293.40
2007,07,03,10,21,290.40
2007,07,03,10,22,287.30
2007,07,03,10,23,290.10
2007,07,03,10,24,294.00
2007,07,03,10,25,291.80
2007,07,03,10,26,290.00
2007,07,03,10,27,296.90
2007,07,03,10,28,309.20
2007,07,03,10,29,332.50
2007,07,03,10,30,351.20
2007,07,03,10,31,376.10
2007,07,03,10,32,415.40
2007,07,03,10,33,456.60
2007,07,03,10,34,497.00
2007,07,03,10,35,490.00
2007,07,03,10,36,504.00
2007,07,03,10,37,552.00
2007,07,03,10,38,585.00
2007,07,03,10,39,536.00
2007,07,03,10,40,557.10
2007,07,03,10,41,691.50
2007,07,03,10,42,611.80
2007,07,03,10,43,571.00
2007,07,03,10,44,652.50
2007,07,03,10,45,680.00
2007,07,03,10,46,627.10
2007,07,03,10,47,559.80
2007,07,03,10,48,541.30
2007,07,03,10,49,519.80
2007,07,03,10,50,490.00
2007,07,03,10,51,465.80
2007,07,03,10,52,470.20
2007,07,03,10,53,503.10
2007,07,03,10,54,488.10
2007,07,03,10,55,483.00
2007,07,03,10,56,506.40
2007,07,03,10,57,506.00
2007,07,03,10,58,506.00
2007,07,03,10,59,563.00
2007,07,03,11,00,580.00
2007,07,03,11,01,547.00
2007,07,03,11,02,531.40
2007,07,03,11,03,597.50
2007,07,03,11,04,595.70
2007,07,03,11,05,584.40
2007,07,03,11,06,514.20
2007,07,03,11,07,521.10
2007,07,03,11,08,448.90
2007,07,03,11,09,412.40
2007,07,03,11,10,427.00
2007,07,03,11,11,459.20
2007,07,03,11,12,502.60
2007,07,03,11,13,487.80
2007,07,03,11,14,455.00
2007,07,03,11,15,450.00
2007,07,03,11,16,451.60
2007,07,03,11,17,457.90
2007,07,03,11,18,485.50
2007,07,03,11,19,496.00
2007,07,03,11,20,589.00
2007,07,03,11,21,679.00
2007,07,03,11,22,703.00
2007,07,03,11,23,631.00
2007,07,03,11,24,671.00
2007,07,03,11,25,667.40
2007,07,03,11,26,628.10
2007,07,03,11,27,630.20
2007,07,03,11,28,655.00
2007,07,03,11,29,602.00
2007,07,03,11,30,589.70
2007,07,03,11,31,607.00
2007,07,03,11,32,560.30
2007,07,03,11,33,515.00
2007,07,03,11,34,496.10
2007,07,03,11,35,500.10
2007,07,03,11,36,520.30
2007,07,03,11,37,542.80
2007,07,03,11,38,558.40
2007,07,03,11,39,516.00
2007,07,03,11,40,495.90
2007,07,03,11,41,489.60
2007,07,03,11,42,491.80
2007,07,03,11,43,480.00
2007,07,03,11,44,459.00
2007,07,03,11,45,439.00
2007,07,03,11,46,427.00
2007,07,03,11,47,459.30
2007,07,03,11,48,495.10
2007,07,03,11,49,509.90
2007,07,03,11,50,496.20
2007,07,03,11,51,506.50
2007,07,03,11,52,512.00
2007,07,03,11,53,545.90
2007,07,03,11,54,595.90
2007,07,03,11,55,571.40
2007,07,03,11,56,567.00
2007,07,03,11,57,573.00
2007,07,03,11,58,550.20
2007,07,03,11,59,519.00
2007,07,03,12,00,501.00
2007,07,03,12,01,492.00
2007,07,03,12,02,494.70
2007,07,03,12,03,534.50
2007,07,03,12,04,618.50
2007,07,03,12,05,629.00
2007,07,03,12,06,629.00
2007,07,03,12,07,550.00
2007,07,03,12,08,506.00
2007,07,03,12,09,475.00
2007,07,03,12,10,448.00
2007,07,03,12,11,431.10
2007,07,03,12,12,416.10
2007,07,03,12,13,408.30
2007,07,03,12,14,400.00
2007,07,03,12,15,395.20
2007,07,03,12,16,386.20
2007,07,03,12,17,380.00
2007,07,03,12,18,370.80
2007,07,03,12,19,358.00
2007,07,03,12,20,362.60
2007,07,03,12,21,378.80
2007,07,03,12,22,408.90
2007,07,03,12,23,424.10
2007,07,03,12,24,429.60
2007,07,03,12,25,431.00
2007,07,03,12,26,431.00
2007,07,03,12,27,431.00
2007,07,03,12,28,450.70
2007,07,03,12,29,466.00
2007,07,03,12,30,455.00
2007,07,03,12,31,452.00
2007,07,03,12,32,459.00
2007,07,03,12,33,461.00
2007,07,03,12,34,461.80
2007,07,03,12,35,457.90
2007,07,03,12,36,451.60
2007,07,03,12,37,459.80
2007,07,03,12,38,465.20
2007,07,03,12,39,471.60
2007,07,03,12,40,457.80
2007,07,03,12,41,425.40
2007,07,03,12,42,399.20
2007,07,03,12,43,381.10
2007,07,03,12,44,378.00
2007,07,03,12,45,390.30
2007,07,03,12,46,441.00
2007,07,03,12,47,461.00
2007,07,03,12,48,461.00
2007,07,03,12,49,461.00
2007,07,03,12,50,660.50
2007,07,03,12,51,763.10
2007,07,03,12,52,768.00
2007,07,03,12,53,587.00
2007,07,03,12,54,566.00
2007,07,03,12,55,591.00
2007,07,03,12,56,576.00
2007,07,03,12,57,662.10
2007,07,03,12,58,603.00
2007,07,03,12,59,613.20
2007,07,03,13,00,643.50
2007,07,03,13,01,584.40
2007,07,03,13,02,565.90
2007,07,03,13,03,561.60
2007,07,03,13,04,573.00
2007,07,03,13,05,593.50
2007,07,03,13,06,605.00
2007,07,03,13,07,563.40
2007,07,03,13,08,515.40
2007,07,03,13,09,510.20
2007,07,03,13,10,536.80
2007,07,03,13,11,563.70
2007,07,03,13,12,586.70
2007,07,03,13,13,597.20
2007,07,03,13,14,598.90
2007,07,03,13,15,624.00
2007,07,03,13,16,650.00
2007,07,03,13,17,650.00
2007,07,03,13,18,650.00
2007,07,03,13,19,654.90
2007,07,03,13,20,723.70
2007,07,03,13,21,656.90
2007,07,03,13,22,642.00
2007,07,03,13,23,642.00
2007,07,03,13,24,638.00
2007,07,03,13,25,636.00
2007,07,03,13,26,644.20
2007,07,03,13,27,607.20
2007,07,03,13,28,598.80
2007,07,03,13,29,605.00
2007,07,03,13,30,619.00
2007,07,03,13,31,619.00
2007,07,03,13,32,619.00
2007,07,03,13,33,619.00
2007,07,03,13,34,619.00
2007,07,03,13,35,721.40
2007,07,03,13,36,745.00
2007,07,03,13,37,745.00
2007,07,03,13,38,675.00
2007,07,03,13,39,577.00
2007,07,03,13,40,661.00
2007,07,03,13,41,645.00
2007,07,03,13,42,645.00
2007,07,03,13,43,645.00
2007,07,03,13,44,645.00
2007,07,03,13,45,645.00
2007,07,03,13,46,645.00
2007,07,03,13,47,820.20
2007,07,03,13,48,1335.70
2007,07,03,13,49,1313.00
2007,07,03,13,50,1313.00
2007,07,03,13,51,1313.00
2007,07,03,13,52,1026.10
2007,07,03,13,53,828.90
2007,07,03,13,54,847.00
2007,07,03,13,55,725.30
2007,07,03,13,56,621.20
2007,07,03,13,57,657.80
2007,07,03,13,58,670.00
2007,07,03,13,59,670.00
2007,07,03,14,00,670.90
2007,07,03,14,01,761.00
2007,07,03,14,02,796.00
2007,07,03,14,03,796.00
2007,07,03,14,04,698.00
2007,07,03,14,05,698.00
2007,07,03,14,06,633.10
2007,07,03,14,07,596.10
2007,07,03,14,08,584.90
2007,07,03,14,09,505.20
2007,07,03,14,10,531.40
2007,07,03,14,11,594.00
2007,07,03,14,12,594.00
2007,07,03,14,13,594.00
2007,07,03,14,14,594.00
2007,07,03,14,15,797.00
2007,07,03,14,16,1000.00
2007,07,03,14,17,1000.00
2007,07,03,14,18,794.40
2007,07,03,14,19,701.00
2007,07,03,14,20,701.00
2007,07,03,14,21,701.00
2007,07,03,14,22,710.10
2007,07,03,14,23,666.00
2007,07,03,14,24,724.00
2007,07,03,14,25,689.00
2007,07,03,14,26,615.00
2007,07,03,14,27,615.00
2007,07,03,14,28,712.00
2007,07,03,14,29,668.00
2007,07,03,14,30,668.00
2007,07,03,14,31,667.20
2007,07,03,14,32,684.80
2007,07,03,14,33,747.00
2007,07,03,14,34,738.90
2007,07,03,14,35,721.00
2007,07,03,14,36,721.00
2007,07,03,14,37,721.00
2007,07,03,14,38,737.90
2007,07,03,14,39,751.00
2007,07,03,14,40,852.90
2007,07,03,14,41,947.70
2007,07,03,14,42,972.80
2007,07,03,14,43,987.40
2007,07,03,14,44,1000.50
2007,07,03,14,45,1006.40
2007,07,03,14,46,947.90
2007,07,03,14,47,944.00
2007,07,03,14,48,944.00
2007,07,03,14,49,944.00
2007,07,03,14,50,469.90
2007,07,03,14,51,420.00
2007,07,03,14,52,420.00
2007,07,03,14,53,420.00
2007,07,03,14,54,412.90
2007,07,03,14,55,378.40
2007,07,03,14,56,374.80
2007,07,03,14,57,391.20
2007,07,03,14,58,413.80
2007,07,03,14,59,409.50
2007,07,03,15,00,389.40
2007,07,03,15,01,382.60
2007,07,03,15,02,403.60
2007,07,03,15,03,428.40
2007,07,03,15,04,461.90
2007,07,03,15,05,475.20
2007,07,03,15,06,522.90
2007,07,03,15,07,516.70
2007,07,03,15,08,459.20
2007,07,03,15,09,410.80
2007,07,03,15,10,420.00
2007,07,03,15,11,385.00
2007,07,03,15,12,381.00
2007,07,03,15,13,390.00
2007,07,03,15,14,420.00
2007,07,03,15,15,445.10
2007,07,03,15,16,427.60
2007,07,03,15,17,415.80
2007,07,03,15,18,408.30
2007,07,03,15,19,457.80
2007,07,03,15,20,541.70
2007,07,03,15,21,585.00
2007,07,03,15,22,497.70
2007,07,03,15,23,366.00
2007,07,03,15,24,351.00
2007,07,03,15,25,338.80
2007,07,03,15,26,329.60
2007,07,03,15,27,324.20
2007,07,03,15,28,319.10
2007,07,03,15,29,315.40
2007,07,03,15,30,315.00
2007,07,03,15,31,317.80
2007,07,03,15,32,321.80
2007,07,03,15,33,325.00
2007,07,03,15,34,327.00
2007,07,03,15,35,329.00
2007,07,03,15,36,336.00
2007,07,03,15,37,348.70
2007,07,03,15,38,359.80
2007,07,03,15,39,373.10
2007,07,03,15,40,392.80
2007,07,03,15,41,416.60
2007,07,03,15,42,420.80
2007,07,03,15,43,410.80
2007,07,03,15,44,389.10
2007,07,03,15,45,365.90
2007,07,03,15,46,341.50
2007,07,03,15,47,323.20
2007,07,03,15,48,330.40
2007,07,03,15,49,349.00
2007,07,03,15,50,359.80
2007,07,03,15,51,362.00
2007,07,03,15,52,353.90
2007,07,03,15,53,333.90
2007,07,03,15,54,317.60
2007,07,03,15,55,315.10
2007,07,03,15,56,325.00
2007,07,03,15,57,325.00
2007,07,03,15,58,325.00
2007,07,03,15,59,343.00
2007,07,03,16,00,347.70
2007,07,03,16,01,415.10
2007,07,03,16,02,374.50
2007,07,03,16,03,414.20
2007,07,03,16,04,459.80
2007,07,03,16,05,416.60
2007,07,03,16,06,467.80
2007,07,03,16,07,487.00
2007,07,03,16,08,487.00
2007,07,03,16,09,487.00
2007,07,03,16,10,380.10
2007,07,03,16,11,291.70
2007,07,03,16,12,283.60
2007,07,03,16,13,274.80
2007,07,03,16,14,269.10
2007,07,03,16,15,270.10
2007,07,03,16,16,277.20
2007,07,03,16,17,290.20
2007,07,03,16,18,300.50
2007,07,03,16,19,301.00
2007,07,03,16,20,301.00
2007,07,03,16,21,304.00
2007,07,03,16,22,315.00
2007,07,03,16,23,315.00
2007,07,03,16,24,317.90
2007,07,03,16,25,315.10
2007,07,03,16,26,307.50
2007,07,03,16,27,297.40
2007,07,03,16,28,291.50
2007,07,03,16,29,290.00
2007,07,03,16,30,288.90
2007,07,03,16,31,284.40
2007,07,03,16,32,277.50
2007,07,03,16,33,272.30
2007,07,03,16,34,269.80
2007,07,03,16,35,266.50
2007,07,03,16,36,261.60
2007,07,03,16,37,253.20
2007,07,03,16,38,250.20
2007,07,03,16,39,250.00
2007,07,03,16,40,254.40
2007,07,03,16,41,259.70
2007,07,03,16,42,264.00
2007,07,03,16,43,269.00
2007,07,03,16,44,272.00
2007,07,03,16,45,279.00
2007,07,03,16,46,288.00
2007,07,03,16,47,292.10
2007,07,03,16,48,294.50
2007,07,03,16,49,301.20
2007,07,03,16,50,314.50
2007,07,03,16,51,328.40
2007,07,03,16,52,347.90
2007,07,03,16,53,404.00
2007,07,03,16,54,421.60
2007,07,03,16,55,368.20
2007,07,03,16,56,346.00
2007,07,03,16,57,328.30
2007,07,03,16,58,315.60
2007,07,03,16,59,306.80
2007,07,03,17,00,300.20
2007,07,03,17,01,297.50
2007,07,03,17,02,294.40
2007,07,03,17,03,302.80
2007,07,03,17,04,297.40
2007,07,03,17,05,289.80
2007,07,03,17,06,295.00
2007,07,03,17,07,285.00
2007,07,03,17,08,262.00
2007,07,03,17,09,265.00
2007,07,03,17,10,283.60
2007,07,03,17,11,260.10
2007,07,03,17,12,248.20
2007,07,03,17,13,257.20